• Join FlightAware (Why Join?)
  • Login
  • US Flag 
01:39PM EDT


 

Airport Tracker/Info


-or-


 

Live Flight TrackerFlight Track Log ✈ EGF4099 ✈ 07-May-2013 ✈ KORD - KCID

Flight Track Log - Related Links

Times and Time Zones

All times are in EDT time to prevent confusion due to time zone crossing. See the EGF4099 flight status page for this flight to view local times or setup timezone preferences in your user account.

Time Position Orientation Groundspeed Altitude Reporting Facility
EDT Latitude Longitude Course Direction KTS MPH feet Rate Location/Type
09:13AM 42.0167 -87.9500 270° West 194 223 2,100  Level Chicago TRACON
09:14AM 42.0667 -88.0000 323° Northwest 255 293 4,300 2,760 Climbing Chicago TRACON
09:15AM 41.9667 -88.1628 270° West  Level FlightAware Approximate
09:16AM 41.9667 -88.2943 270° West  Level FlightAware Approximate
09:17AM 41.9667 -88.4257 270° West  Level FlightAware Approximate
09:17AM 42.1097 -88.1833 288° West 273 314 11,200  Level Chicago Center
09:18AM 41.9668 -88.5571 270° West  Level FlightAware Approximate
09:18AM 42.1061 -88.2931 267° West 291 335 13,000  Level Chicago Center
09:19AM 41.9668 -88.6702 270° West  Level FlightAware Approximate
09:19AM 42.1044 -88.4317 269° West 310 357 13,800  Level Chicago Center
09:20AM 42.0981 -88.5622 266° West 343 395 15,200 1,380 Climbing Chicago Center
09:21AM 42.0900 -88.7042 266° West 378 435 16,700 1,380 Climbing Chicago Center
09:22AM 42.0817 -88.8617 266° West 394 453 18,100 1,320 Climbing Chicago Center
09:23AM 42.0722 -89.0111 265° West 401 461 19,500 1,440 Climbing Chicago Center
09:24AM 42.0628 -89.1811 266° West 407 468 21,100 1,200 Climbing Chicago Center
09:25AM 42.0531 -89.3361 265° West 415 478 22,000 420 Climbing Chicago Center
09:26AM 42.0436 -89.4858 265° West 411 473 22,000  Level Chicago Center
09:27AM 42.0347 -89.6297 265° West 395 455 22,000  Level Chicago Center
09:28AM 42.0269 -89.7733 266° West 389 448 22,000  Level Chicago Center
09:29AM 42.0158 -89.9436 265° West 389 448 22,000  Level Chicago Center
09:30AM 42.0064 -90.0872 265° West 391 450 22,000  Level Chicago Center
09:31AM 41.9958 -90.2325 264° West 393 452 22,000 -420 Level Chicago Center
09:32AM 41.9869 -90.3753 265° West 389 448 21,200 -1,200 Descending Chicago Center
09:33AM 41.9764 -90.5119 264° West 378 435 19,500 -1,860 Descending Chicago Center
09:34AM 41.9647 -90.6706 264° West 362 417 17,400 -1,920 Descending Chicago Center
09:35AM 41.9550 -90.8019 264° West 358 412 15,600 -1,800 Descending Chicago Center
09:36AM 41.9450 -90.9286 264° West 347 399 13,800 -1,800 Descending Chicago Center
09:37AM 41.9372 -91.0542 265° West 340 391 12,000 -1,800 Descending Chicago Center
09:38AM 41.9550 -91.1664 282° West 310 357 10,200 -1,920 Descending Chicago Center
09:39AM 41.9728 -91.2919 281° West 289 333 8,100 -1,920 Descending Chicago Center
09:40AM 41.9800 -91.3886 276° West 269 310 6,300 -1,800 Descending Chicago Center
09:41AM 41.9794 -91.4803 270° West 251 289 4,500 -1,620 Descending Chicago Center
09:42AM 41.9781 -91.5739 269° West 252 290 3,000 -1,020 Descending Chicago Center
09:43AM 41.9772 -91.6481 269° West 199 229 2,500 -300 Descending Chicago Center
09:44AM 41.9758 -91.7169 268° West 190 219 2,500  Level Chicago Center
09:46AM 41.9742 -91.8069 269° West 194 223 2,500  Level Chicago Center
09:47AM 41.9472 -91.8558 233° Southwest 206 237 2,500  Level Chicago Center
09:48AM 41.8953 -91.8653 188° South 194 223 2,500  Level Chicago Center